Tiempo cada hora Bartoszowka

Hoy, 4 Marzo, Jueves

Tiempo Temperatura Precipitaciones Viento Presión Humedad
00:00 +1°C° 0 mm 2 mps 692 mmHg 75%
01:00 +1°C° 0 mm 2 mps 692 mmHg 75%
02:00 +1°C° 0 mm 2 mps 692 mmHg 74%
03:00 +1°C° 0 mm 2 mps 691 mmHg 74%
04:00 -1°C° 0 mm 2 mps 690 mmHg 73%
05:00 +1°C° 0 mm 2 mps 690 mmHg 72%
06:00 +1°C° 0 mm 2 mps 690 mmHg 70%
07:00 +1°C° 0 mm 2 mps 690 mmHg 69%
08:00 +3°C° 0 mm 2 mps 690 mmHg 63%
09:00 +6°C° 0 mm 2 mps 690 mmHg 58%
10:00 +8°C° 0 mm 2 mps 690 mmHg 52%
11:00 +8°C° 0 mm 3 mps 690 mmHg 53%
12:00 +9°C° 0 mm 3 mps 690 mmHg 54%
13:00 +9°C° 0 mm 3 mps 689 mmHg 55%
14:00 +8°C° 0.1 mm 3 mps 689 mmHg 64%
15:00 +7°C° 0.1 mm 3 mps 688 mmHg 72%
16:00 +5°C° 0.1 mm 3 mps 687 mmHg 81%
17:00 +5°C° 0.3 mm 3 mps 687 mmHg 84%
18:00 +5°C° 0.3 mm 2 mps 687 mmHg 87%
19:00 +4°C° 0.3 mm 2 mps 686 mmHg 90%
20:00 +5°C° 0.1 mm 1 mps 686 mmHg 90%
21:00 +5°C° 0.1 mm 1 mps 686 mmHg 90%
22:00 +4°C° 0.1 mm 1 mps 686 mmHg 90%
23:00 +4°C° 0.8 mm 1 mps 686 mmHg 91%

Mañana, 5 Marzo, Viernes

Tiempo Temperatura Precipitaciones Viento Presión Humedad
00:00 +4°C° 0.8 mm 1 mps 685 mmHg 93%
01:00 +4°C° 0.8 mm 1 mps 685 mmHg 94%
02:00 +2°C° 1.4 mm 2 mps 685 mmHg 95%
03:00 +1°C° 1.4 mm 2 mps 685 mmHg 96%
04:00 -1°C° 1.4 mm 3 mps 685 mmHg 97%
05:00 -2°C° 0.6 mm 2 mps 685 mmHg 96%
06:00 -3°C° 0.6 mm 2 mps 685 mmHg 96%
07:00 -3°C° 0.6 mm 2 mps 686 mmHg 95%
08:00 -3°C° 0.3 mm 2 mps 686 mmHg 93%
09:00 -3°C° 0.3 mm 2 mps 687 mmHg 91%
10:00 -4°C° 0.3 mm 3 mps 687 mmHg 89%
11:00 -4°C° 0.2 mm 3 mps 688 mmHg 87%
12:00 -4°C° 0.2 mm 3 mps 688 mmHg 85%
13:00 -4°C° 0.2 mm 3 mps 688 mmHg 84%
14:00 -4°C° 0.1 mm 3 mps 689 mmHg 80%
15:00 -4°C° 0.1 mm 3 mps 689 mmHg 77%
16:00 -5°C° 0.1 mm 3 mps 689 mmHg 74%
17:00 -6°C° 0 mm 3 mps 690 mmHg 76%
18:00 -5°C° 0 mm 2 mps 690 mmHg 79%
19:00 -6°C° 0 mm 2 mps 691 mmHg 81%
20:00 -6°C° 0 mm 1 mps 691 mmHg 82%
21:00 -6°C° 0 mm 1 mps 692 mmHg 83%
22:00 -6°C° 0 mm 1 mps 692 mmHg 83%
23:00 -6°C° 0.1 mm 1 mps 693 mmHg 83%

Pasado mañana, 6 Marzo, Sábado

Tiempo Temperatura Precipitaciones Viento Presión Humedad
00:00 -6°C° 0.1 mm 1 mps 693 mmHg 83%
01:00 -6°C° 0.1 mm 1 mps 693 mmHg 83%
02:00 -6°C° 0 mm 1 mps 694 mmHg 83%
03:00 -6°C° 0 mm 1 mps 694 mmHg 83%
04:00 -6°C° 0 mm 1 mps 694 mmHg 83%
05:00 -7°C° 0.1 mm 2 mps 694 mmHg 83%
06:00 -6°C° 0.1 mm 2 mps 695 mmHg 83%
07:00 -6°C° 0.1 mm 2 mps 695 mmHg 82%
08:00 -6°C° 0.1 mm 2 mps 696 mmHg 77%
09:00 -5°C° 0.1 mm 2 mps 696 mmHg 71%
10:00 -5°C° 0.1 mm 3 mps 697 mmHg 65%
11:00 -4°C° 0.1 mm 2 mps 697 mmHg 62%
12:00 -3°C° 0.1 mm 2 mps 697 mmHg 60%
13:00 -3°C° 0.1 mm 2 mps 697 mmHg 57%
14:00 -3°C° 0 mm 2 mps 697 mmHg 58%
15:00 -3°C° 0 mm 2 mps 696 mmHg 58%
16:00 -3°C° 0 mm 2 mps 696 mmHg 59%
17:00 -5°C° 0 mm 2 mps 696 mmHg 65%
18:00 -4°C° 0 mm 1 mps 696 mmHg 71%
19:00 -6°C° 0 mm 1 mps 696 mmHg 76%
20:00 -6°C° 0 mm 1 mps 696 mmHg 76%
21:00 -6°C° 0 mm 1 mps 696 mmHg 77%
22:00 -6°C° 0 mm 1 mps 696 mmHg 77%
23:00 -6°C° 0 mm 1 mps 695 mmHg 76%

7 Marzo, Domingo

Tiempo Temperatura Precipitaciones Viento Presión Humedad
00:00 -6°C° 0 mm 1 mps 695 mmHg 75%
01:00 -6°C° 0 mm 1 mps 695 mmHg 74%
02:00 -6°C° 0 mm 1 mps 694 mmHg 73%
03:00 -6°C° 0 mm 1 mps 694 mmHg 72%
04:00 -7°C° 0 mm 2 mps 693 mmHg 71%
05:00 -7°C° 0 mm 2 mps 693 mmHg 69%
06:00 -7°C° 0 mm 2 mps 693 mmHg 67%
07:00 -7°C° 0 mm 2 mps 693 mmHg 66%
08:00 -5°C° 0 mm 2 mps 693 mmHg 58%
09:00 -3°C° 0 mm 2 mps 693 mmHg 51%
10:00 -1°C° 0 mm 3 mps 693 mmHg 43%
11:00 0°C° 0 mm 3 mps 693 mmHg 42%
12:00 +1°C° 0 mm 3 mps 692 mmHg 41%
13:00 +1°C° 0 mm 3 mps 692 mmHg 39%
14:00 +1°C° 0 mm 3 mps 691 mmHg 42%
15:00 +1°C° 0 mm 3 mps 691 mmHg 45%
16:00 0°C° 0 mm 3 mps 690 mmHg 48%
17:00 -1°C° 0 mm 2 mps 690 mmHg 54%
18:00 -3°C° 0 mm 2 mps 690 mmHg 60%
19:00 -3°C° 0 mm 1 mps 689 mmHg 66%
20:00 -3°C° 0 mm 1 mps 689 mmHg 67%
21:00 -3°C° 0 mm 1 mps 689 mmHg 67%
22:00 -3°C° 0 mm 1 mps 689 mmHg 68%
23:00 -3°C° 0 mm 1 mps 689 mmHg 69%

8 Marzo, Lunes

Tiempo Temperatura Precipitaciones Viento Presión Humedad
00:00 -3°C° 0 mm 1 mps 689 mmHg 70%
01:00 -3°C° 0 mm 1 mps 688 mmHg 71%
02:00 -3°C° 0 mm 1 mps 688 mmHg 73%
03:00 -4°C° 0 mm 1 mps 688 mmHg 74%
04:00 -4°C° 0 mm 1 mps 688 mmHg 76%
05:00 -4°C° 0 mm 1 mps 688 mmHg 78%
06:00 -3°C° 0 mm 1 mps 688 mmHg 79%
07:00 -3°C° 0 mm 1 mps 688 mmHg 80%
08:00 -2°C° 0 mm 1 mps 689 mmHg 77%
09:00 -1°C° 0 mm 1 mps 689 mmHg 73%
10:00 -2°C° 0 mm 2 mps 689 mmHg 70%
11:00 -2°C° 0 mm 2 mps 690 mmHg 70%
12:00 -2°C° 0 mm 2 mps 690 mmHg 70%
13:00 -1°C° 0 mm 2 mps 690 mmHg 70%
14:00 -2°C° 0.1 mm 2 mps 690 mmHg 73%
15:00 -2°C° 0.1 mm 2 mps 690 mmHg 77%
16:00 -2°C° 0.1 mm 2 mps 690 mmHg 80%
17:00 -1°C° 0.1 mm 1 mps 690 mmHg 85%
18:00 -2°C° 0.1 mm 1 mps 690 mmHg 90%
19:00 -3°C° 0.1 mm 1 mps 690 mmHg 95%
20:00 -3°C° 0.1 mm 1 mps 691 mmHg 94%
21:00 -3°C° 0.1 mm 1 mps 691 mmHg 92%
22:00 -3°C° 0.1 mm 1 mps 691 mmHg 90%
23:00 -4°C° 0 mm 1 mps 691 mmHg 88%

9 Marzo, Martes

Tiempo Temperatura Precipitaciones Viento Presión Humedad
00:00 -4°C° 0 mm 1 mps 691 mmHg 87%
01:00 -4°C° 0 mm 1 mps 691 mmHg 85%
02:00 -4°C° 0 mm 1 mps 691 mmHg 84%
03:00 -6°C° 0 mm 1 mps 691 mmHg 83%
04:00 -6°C° 0 mm 1 mps 691 mmHg 82%
05:00 -6°C° 0 mm 1 mps 691 mmHg 81%
06:00 -4°C° 0 mm 1 mps 691 mmHg 80%
07:00 -4°C° 0 mm 1 mps 691 mmHg 79%
08:00 -3°C° 0 mm 1 mps 691 mmHg 72%
09:00 -2°C° 0 mm 1 mps 692 mmHg 65%
10:00 -1°C° 0 mm 1 mps 692 mmHg 58%
11:00 0°C° 0 mm 1 mps 692 mmHg 56%
12:00 0°C° 0 mm 1 mps 692 mmHg 55%
13:00 -1°C° 0 mm 2 mps 692 mmHg 54%
14:00 -2°C° 0.1 mm 2 mps 692 mmHg 56%
15:00 -2°C° 0.1 mm 2 mps 691 mmHg 58%
16:00 -3°C° 0.1 mm 2 mps 691 mmHg 61%
17:00 -2°C° 0 mm 1 mps 691 mmHg 66%
18:00 -3°C° 0 mm 1 mps 691 mmHg 71%
19:00 -4°C° 0 mm 1 mps 691 mmHg 76%
20:00 -4°C° 0 mm 1 mps 691 mmHg 76%
21:00 -5°C° 0 mm 0 mps 691 mmHg 76%
22:00 -5°C° 0 mm 0 mps 691 mmHg 77%
23:00 -5°C° 0 mm 0 mps 691 mmHg 77%
Mostrar más

Necesitamos Su Consentimiento

Meteoprog y nuestros Proveedores de Servicios pueden almacenar y acceder a sus datos personales como cookies, identificadores de dispositivo u otras tecnologías similares de su dispositivo y procesar dichos datos para personalizar contenido y anuncios, además de ofrecer funciones de redes sociales y analizar el tráfico.

  • Almacenar y/o acceder a información en su dispositivo

    Se puede almacenar o acceder a cookies, identificadores de dispositivo u otra información de su dispositivo para los fines anteriormente indicados.

  • Anuncios y contenido personalizados, medición de anuncios y contenido, percepciones del público, y desarrollo de productos

    Los anuncios y el contenido pueden personalizarse en base a su perfil. Se pueden añadir más datos para personalizar mejor los anuncios y contenidos. Se puede medir el rendimiento de los anuncios y contenidos. Se puede obtener la percepción sobre el público que ha visto los anuncios y contenidos. Dichos datos pueden usarse para desarrollar o mejorar la experiencia del usuario, sistemas y software.

Al hacer clic en ‘Estoy De Acuerdo’ usted permitirá el uso de las cookies, identificadores de dispositivo, balizas web u otras tecnologías similares indicadas. Su configuración puede cambiarse desde el navegador de su dispositivo.

Para ciertos fines, los intereses legítimos pueden ser considerados por encima del consentimiento. Puede leer más sobre ello en nuestra Política de Privacidad y Cookies.